User: anonymous   Login
Location: Strohbehn Observatory
(42.4649°N, 93.8239°W)
Time: 16:31:31
(UTC-05:00)
Language:

SL-16 R/B - Orbit

View from above orbital plane
View from above orbital plane
View from above satellite
View from above satellite

Ground track
Ground track

The orbit data is extracted from the following two-line orbital elements,

1 31793U 07029B   17228.56304056 -.00000057 +00000-0 -50053-5 0  9992
2 31793 070.9747 262.3431 0002221 282.4671 191.7239 14.14389315523211
Epoch (UTC): 16 August 2017 13:30:46
Eccentricity: 0.0002221
inclination: 70.9747°
perigee height: 843 km
apogee height: 846 km
right ascension of ascending node: 262.3431°
argument of perigee: 282.4671°
revolutions per day: 14.14389315
mean anomaly at epoch: 191.7239°
orbit number at epoch: 52321

The dashed part of the orbit path shows where the satellite is in the earth's shadow,  

DLR